Погода в Хайрюзово

Россия / Камчатский край     56°50′49″N   157°01′18″E
темп.,
°C
ветер,
м/с
пор.,
м/с
влажн.,
%
обл.,
%
осадки,
мм/ч
давл.,
гПа
погр.,
м
28 ноября, вс
вс2800:00−20св22895 0.0 101011
03:00−21в11905 0.0 10109
06:00−22вюв11885 0.0 10109
09:00−23вюв11925 0.0 10109
12:00−18вюв11855 0.0 101058
15:00−15юв11885 0.0 100963
18:00−20юв11975 0.0 10109
21:00−21вюв229955 0.0 101012
29 ноября, пн
пн2900:00−21вюв2197100 0.0 100922
03:00−19вюв229399 0.0 100931
06:00−15вюв2385100 0.0 100889
09:00−13юв2695100 0.1 1008152
12:00−8ю41194100 0.4 1008330
15:00−7ююз61193100 0.1 1008415
18:00−7ююз51191100 0.4 1008343
21:00−7ююз5994100 0.3 1009287
30 ноября, вт
вт3000:00−7ю41094100 0.6 1008337
03:00−6ююз3896100 0.5 1008326
06:00−7ю3696100 1.1 1007162
09:00−7ююз2497100 0.6 100782
12:00−6юз2596100 1.3 1006358
15:00−6зюз5994100 1.0 1007771
18:00−8юз51176100 1.2 1009293
21:00−8юз51175100 0.1 1010217
1 декабря, ср
ср100:00−8юз51177100 0.3 1012248
03:00−6зюз81570100 0.3 1014702
06:00−6юз51179100 0.3 1015432
09:00−7ююз4996100 0.8 1016370
12:00−6ююз4893100 1.2 1017310
15:00−5ююз4883100 0.0 1018237
18:00−8ююв2297100 0.0 101823
21:00−10в2298100 0.0 101611
2 декабря, чт
чт200:00−6всв51285100 0.0 1012240
03:00−5всв101789100 0.8 1004541
06:00−5в91396100 8.7 996305
09:00−3в81294100 11.9 989266
12:00−2в5995100 17.0 984204
15:000в4890100 0.9 979175
18:00+1ю51690100 1.4 977735
21:00+1юз71597100 2.3 9771176